Date,TemperatureHighF,TemperatureAvgF,TemperatureLowF,DewpointHighF,DewpointAvgF,DewpointLowF,HumidityHigh,HumidityAvg,HumidityLow,PressureMaxIn,PressureMinIn,WindSpeedMaxMPH,WindSpeedAvgMPH,GustSpeedMaxMPH,PrecipitationSumIn
2013-1-1,20.1,6.8,-5.4,17.1,2.4,-9.0,88,82,68,30.33,30.04,17,3,17,0.00
2013-1-2,22.2,18.5,15.0,19.6,16.0,12.9,100,90,86,30.09,29.97,16,4,16,0.00
2013-1-3,21.1,14.8,12.1,17.6,10.2,5.5,87,82,69,30.29,30.09,21,7,21,0.00
2013-1-4,30.7,22.9,15.6,19.2,16.0,12.2,92,75,61,30.13,30.02,21,4,21,0.00
2013-1-5,25.1,18.3,12.9,16.2,13.5,10.2,90,82,65,30.10,29.86,15,3,15,0.00
2013-1-6,24.0,17.4,12.1,15.3,11.7,6.3,92,78,59,30.24,30.00,16,5,17,0.00
2013-1-7,38.9,30.4,17.2,27.1,23.2,13.2,84,75,61,30.00,29.87,29,7,29,0.00
2013-1-8,34.7,29.2,20.8,30.9,24.5,18.5,91,83,72,29.97,29.75,23,4,23,0.01
2013-1-9,34.7,31.4,27.9,28.6,23.7,21.2,85,73,62,30.35,29.89,36,8,36,0.00
2013-1-10,41.4,35.0,28.5,33.1,26.2,22.1,95,71,49,30.29,29.72,16,4,16,0.28
2013-1-11,41.7,37.4,34.5,40.7,36.4,33.1,96,96,92,29.72,29.33,26,3,26,0.04
2013-1-12,38.8,15.4,4.7,37.0,9.7,-1.0,93,78,68,30.12,29.35,30,11,31,0.00
2013-1-13,8.3,4.9,1.4,2.7,-0.2,-3.6,90,79,76,30.27,30.09,16,6,16,0.00
2013-1-14,12.9,8.6,4.2,6.1,2.8,-0.6,85,77,64,30.45,30.27,14,4,15,0.00
2013-1-15,30.1,20.5,10.9,18.5,12.7,6.0,88,73,50,30.30,29.81,23,7,23,0.00
2013-1-16,36.0,26.6,12.3,32.0,17.5,-3.0,92,70,42,30.25,29.63,29,8,30,0.00
2013-1-17,18.8,13.1,7.1,10.8,3.0,-4.7,75,64,51,30.43,30.25,17,4,17,0.00
2013-1-18,40.5,29.4,17.4,30.4,23.4,10.8,86,78,65,30.31,29.71,19,5,19,0.01
2013-1-19,38.3,23.2,2.5,31.4,17.0,-4.9,93,77,58,30.25,29.66,39,10,39,0.00
2013-1-20,7.3,2.3,-2.1,1.3,-5.4,-10.7,80,70,59,30.46,30.25,26,8,26,0.00
2013-1-21,-2.1,-6.4,-10.3,-10.1,-14.3,-18.9,74,68,61,30.41,30.31,22,8,22,0.00
2013-1-22,5.2,-3.8,-11.8,-0.6,-11.7,-18.0,77,68,61,30.47,30.28,13,3,13,0.00
2013-1-23,14.8,6.4,-5.3,7.9,-2.4,-15.6,84,67,49,30.65,30.18,28,7,28,0.00
2013-1-24,13.8,1.8,-7.1,2.8,-7.9,-16.2,67,63,60,30.74,30.18,17,4,17,0.00
2013-1-25,18.5,13.3,4.6,11.5,4.8,-2.2,77,68,60,30.34,29.95,30,9,30,0.00
2013-1-26,24.7,13.0,0.8,13.4,4.3,-4.1,82,68,56,30.38,30.12,16,3,16,0.00
2013-1-27,33.8,29.5,24.5,30.2,22.9,13.4,96,77,58,30.12,29.79,15,3,15,0.00
2013-1-28,35.1,31.9,29.6,33.6,30.8,28.5,97,96,94,29.89,29.62,11,2,12,0.23
2013-1-29,35.4,32.1,27.4,32.1,29.1,21.5,97,89,79,29.75,29.52,21,5,21,0.04
2013-1-30,27.4,17.4,7.8,21.5,11.4,1.2,83,77,71,29.79,29.65,25,10,28,0.00
2013-1-31,7.8,1.7,-6.8,1.8,-5.2,-14.4,78,72,65,30.31,29.79,27,11,30,0.00
2013-2-1,3.3,-3.7,-11.6,-0.2,-10.4,-17.5,85,72,54,30.37,30.09,15,4,16,0.00
2013-2-2,11.7,5.8,0.3,7.0,0.4,-3.9,87,78,63,30.23,30.01,11,2,13,0.00
2013-2-3,13.0,9.8,3.4,8.1,4.5,-0.9,92,79,69,30.11,30.00,18,5,19,0.00
2013-2-4,15.3,10.0,2.8,11.8,3.0,-3.3,88,73,59,30.11,29.75,15,3,15,0.00
2013-2-5,28.2,22.3,10.0,24.5,16.7,6.4,92,79,59,30.09,29.65,18,5,18,0.01
2013-2-6,25.2,16.5,7.2,21.9,13.0,4.2,89,86,81,30.11,29.96,12,3,13,0.00
2013-2-7,27.6,25.3,23.5,23.4,21.9,20.8,93,87,78,30.26,30.00,19,5,19,0.01
2013-2-8,27.7,22.5,13.9,22.4,15.8,10.9,92,76,59,30.39,30.21,17,3,17,0.00
2013-2-9,32.7,29.0,25.2,29.1,25.5,21.0,92,87,83,30.21,29.93,21,6,21,0.00
2013-2-10,32.7,30.1,27.8,31.9,28.4,25.3,97,93,86,29.93,29.26,18,6,19,0.01
2013-2-11,29.8,25.1,16.4,29.0,20.7,12.6,97,83,74,30.04,29.33,31,10,31,0.00
2013-2-12,34.4,24.4,14.4,24.2,18.5,10.6,87,78,64,30.04,29.80,22,6,22,0.03
2013-2-13,39.4,29.3,21.8,31.8,24.8,18.1,96,84,63,29.80,29.54,17,4,17,0.09
2013-2-14,32.3,25.7,14.3,31.3,18.0,3.5,96,75,39,30.19,29.58,27,5,27,0.11
2013-2-15,18.1,11.4,5.4,5.6,3.0,0.1,81,69,53,30.33,30.19,18,6,18,0.00
2013-2-16,19.0,10.1,2.7,7.7,3.8,-1.8,94,75,59,30.29,30.13,9,1,9,0.00
2013-2-17,31.9,22.5,9.7,23.6,15.3,5.1,82,74,65,30.13,29.61,26,5,26,0.00
2013-2-18,32.9,23.7,9.3,30.0,18.2,3.2,89,79,73,29.82,29.50,28,8,29,0.00
2013-2-19,9.2,5.6,1.9,3.2,-2.8,-6.1,79,68,59,30.41,29.82,31,9,31,0.00
2013-2-20,16.2,6.0,-4.0,3.9,-2.0,-8.9,81,69,56,30.51,30.41,11,2,12,0.00
2013-2-21,22.8,14.3,3.1,16.5,6.7,-1.0,90,72,59,30.48,30.11,16,4,17,0.00
2013-2-22,26.6,23.1,20.0,24.2,20.5,16.3,93,90,80,30.11,29.86,13,4,14,0.07
2013-2-23,32.0,24.8,20.2,26.1,21.1,16.8,92,86,75,29.96,29.84,13,4,13,0.02
2013-2-24,36.3,23.8,11.8,23.6,17.8,9.4,92,79,59,30.11,29.96,11,1,11,0.00
2013-2-25,36.6,28.0,20.9,24.4,21.4,17.8,88,77,60,30.11,30.01,7,0,7,0.00
2013-2-26,35.7,26.0,14.0,27.5,21.4,11.9,93,83,71,30.06,29.88,18,4,19,0.00
2013-2-27,38.9,31.6,27.6,26.6,25.0,22.4,86,77,57,30.03,29.87,23,6,23,0.00
2013-2-28,30.7,28.4,23.8,23.2,21.0,16.7,81,74,68,30.24,30.02,19,5,19,0.00
2013-3-1,29.2,24.1,15.8,19.2,16.3,11.2,82,72,62,30.37,30.23,16,5,17,0.00
2013-3-2,30.5,20.4,7.7,13.9,10.0,5.1,89,66,41,30.38,30.17,9,1,9,0.00
2013-3-3,33.2,26.8,19.9,13.8,11.4,8.8,68,52,42,30.17,29.98,16,4,16,0.00
2013-3-4,28.7,25.5,22.9,22.8,18.0,9.2,93,75,44,30.05,29.95,20,6,20,0.00
2013-3-5,28.4,25.0,21.7,27.5,23.0,18.7,100,92,87,30.32,29.98,15,4,16,0.08
2013-3-6,27.8,22.1,14.4,20.4,17.3,11.9,90,82,71,30.44,30.31,13,3,13,0.03
2013-3-7,32.4,22.0,7.6,20.2,14.6,5.3,91,74,55,30.41,30.29,15,3,15,0.04
2013-3-8,39.1,31.0,21.4,30.3,24.3,17.5,86,77,67,30.32,30.07,14,4,14,0.03
2013-3-9,37.8,35.8,33.3,36.1,33.8,28.8,96,92,76,30.07,29.68,16,4,16,0.44
2013-3-10,34.5,32.8,29.2,33.5,28.9,24.1,96,85,79,29.96,29.78,24,8,27,0.01
2013-3-11,30.6,27.5,22.7,24.3,22.0,18.5,85,80,69,29.88,29.75,18,6,19,0.00
2013-3-12,29.3,24.6,20.7,19.9,15.3,10.9,84,68,47,30.20,29.83,24,7,25,0.00
2013-3-13,31.5,22.3,13.6,17.8,13.7,10.0,86,71,46,30.39,30.20,15,5,15,0.00
2013-3-14,42.7,31.9,24.4,29.8,24.7,18.2,91,75,59,30.25,30.00,13,3,13,0.04
2013-3-15,33.9,30.6,23.0,31.7,27.5,21.0,94,88,79,30.00,29.84,17,5,18,0.11
2013-3-16,24.1,19.9,12.4,21.0,12.7,3.5,92,74,55,30.27,29.92,21,6,21,0.00
2013-3-17,27.4,17.7,4.6,18.4,6.7,-1.5,76,62,50,30.30,29.88,19,6,19,0.00
2013-3-18,29.0,22.0,12.5,27.5,17.0,6.3,94,81,70,29.88,29.59,32,11,32,0.00
2013-3-19,21.9,13.4,6.5,7.9,3.3,-1.7,78,64,45,30.22,29.83,27,12,28,0.00
2013-3-20,21.6,13.2,6.6,6.0,1.4,-2.5,67,59,49,30.24,30.14,24,10,25,0.00
2013-3-21,26.7,16.5,5.4,11.0,5.9,-0.4,78,63,50,30.16,30.07,11,2,11,0.00
2013-3-22,35.4,23.1,10.6,16.1,10.9,5.3,82,61,42,30.10,30.04,12,1,13,0.00
2013-3-23,38.2,31.4,18.0,21.0,17.7,12.9,81,58,43,30.15,30.08,11,2,12,0.00
2013-3-24,32.8,29.4,27.2,26.0,22.8,20.1,88,76,66,30.10,29.98,18,5,19,0.00
2013-3-25,36.9,30.3,22.2,22.6,18.9,15.5,76,63,48,30.21,30.05,19,6,20,0.00
2013-3-26,39.7,31.7,24.9,24.7,21.4,19.2,79,66,45,30.29,30.21,14,4,14,0.00
2013-3-27,42.4,34.0,24.3,21.7,19.8,17.5,75,57,39,30.34,30.29,15,2,15,0.00
2013-3-28,45.6,35.1,22.0,27.2,22.4,18.7,88,62,37,30.34,30.26,12,2,12,0.00
2013-3-29,51.2,40.6,30.7,36.7,31.0,24.1,79,69,54,30.26,30.03,16,2,16,0.00
2013-3-30,52.8,43.7,36.1,43.0,38.0,32.0,92,80,66,30.03,29.82,19,6,19,0.47
2013-3-31,38.4,33.8,23.9,32.0,23.6,12.7,92,68,38,30.10,29.77,29,10,29,0.00
2013-4-1,33.8,25.1,17.6,18.5,14.0,11.1,77,63,40,30.27,30.10,19,9,23,0.00
2013-4-2,36.1,27.8,19.4,17.5,14.9,10.0,83,60,36,30.36,30.25,21,5,21,0.00
2013-4-3,46.7,36.3,20.2,32.2,22.1,14.1,83,58,35,30.40,30.01,27,6,27,0.00
2013-4-4,48.2,42.6,33.4,33.8,28.2,22.6,80,58,39,30.16,29.96,25,8,27,0.00
2013-4-5,43.2,34.1,25.6,33.8,24.1,16.8,92,69,35,30.24,29.88,19,4,19,0.06
2013-4-6,51.2,41.1,36.0,42.5,34.3,28.5,92,77,57,29.88,29.50,22,7,22,0.26
2013-4-7,49.1,40.6,35.3,39.2,33.9,30.0,92,78,58,29.93,29.73,13,3,13,0.15
2013-4-8,44.5,41.0,39.2,41.7,38.8,36.1,96,92,87,30.05,29.67,17,4,17,0.66
2013-4-9,43.5,38.2,33.6,36.2,30.6,23.7,87,75,57,30.18,29.98,27,11,27,0.07
2013-4-10,39.9,35.1,30.3,30.6,26.0,22.5,94,70,51,30.20,29.92,29,10,29,0.00
2013-4-11,36.4,32.7,29.3,32.5,28.9,21.3,96,87,55,29.92,29.70,25,11,25,0.30
2013-4-12,35.9,30.7,27.2,29.8,27.5,25.3,96,88,72,29.85,29.68,13,4,13,0.06
2013-4-13,35.5,31.6,28.4,27.9,25.9,22.5,94,80,64,29.96,29.82,17,4,17,0.02
2013-4-14,37.1,31.9,28.9,35.4,28.1,23.0,95,86,71,29.95,29.49,22,5,24,0.52
2013-4-15,39.7,36.1,32.6,35.5,29.5,26.1,94,77,68,29.96,29.51,34,11,34,0.04
2013-4-16,45.1,37.5,33.2,29.9,28.2,27.1,80,69,53,30.31,29.95,21,5,21,0.00
2013-4-17,40.7,36.9,33.9,34.4,30.0,26.9,94,76,68,30.32,29.92,28,7,28,0.08
2013-4-18,34.4,32.0,30.9,32.5,30.7,29.5,100,95,90,29.95,29.51,21,6,21,0.16
2013-4-19,35.2,31.3,28.8,30.7,27.6,17.0,97,87,61,30.00,29.49,28,8,31,0.27
2013-4-20,41.6,31.8,21.4,20.4,15.9,9.1,81,54,29,30.30,30.00,11,2,11,0.03
2013-4-21,48.4,40.3,33.0,46.1,35.2,17.9,94,83,50,30.30,29.97,28,6,28,0.13
2013-4-22,43.4,36.7,31.6,37.0,31.8,29.1,96,83,61,30.21,30.11,23,7,23,0.02
2013-4-23,42.0,33.9,26.5,30.6,25.9,19.4,97,75,42,30.17,30.05,18,6,20,0.10
2013-4-24,50.1,37.4,28.1,34.7,28.1,22.9,89,72,36,30.07,29.90,33,8,33,0.00
2013-4-25,51.1,40.9,31.7,33.6,28.5,22.2,90,65,35,30.20,29.96,20,6,20,0.00
2013-4-26,71.2,57.7,46.1,45.2,38.2,29.2,71,50,29,30.08,29.92,23,5,24,0.01
2013-4-27,73.5,60.8,41.0,46.6,36.7,27.1,79,44,21,30.08,29.82,19,2,20,0.00
2013-4-28,80.1,64.8,52.6,53.7,47.4,44.4,89,56,31,29.82,29.58,30,8,30,0.08
2013-4-29,74.0,62.1,48.5,57.2,44.3,34.6,89,55,26,29.78,29.50,15,3,16,0.00
2013-4-30,70.0,64.3,55.8,59.1,45.6,28.0,80,54,24,29.93,29.34,27,8,27,0.00
2013-5-1,55.7,41.9,33.5,38.7,32.4,27.0,94,70,46,30.48,29.93,20,5,21,0.25
2013-5-2,45.6,39.5,35.0,29.7,27.0,25.3,76,61,47,30.54,30.42,23,8,23,0.00
2013-5-3,36.8,34.0,31.4,33.3,29.0,24.0,91,82,64,30.42,30.17,23,8,23,0.08
2013-5-4,45.9,38.3,32.4,40.7,35.2,30.3,94,89,81,30.17,30.12,17,6,17,0.05
2013-5-5,65.7,49.8,37.5,48.6,41.5,34.7,91,75,53,30.17,30.03,13,3,13,0.00
2013-5-6,75.3,60.3,43.6,49.0,44.7,40.6,89,60,32,30.09,29.97,14,1,14,0.00
2013-5-7,78.4,66.1,50.8,50.6,46.5,41.7,86,53,28,30.02,29.90,16,2,16,0.00
2013-5-8,76.7,65.4,58.2,56.4,51.2,44.9,90,62,33,29.97,29.90,21,2,21,0.12
2013-5-9,58.2,52.5,42.6,55.0,46.7,29.3,93,81,56,30.10,29.92,25,8,25,0.03
2013-5-10,66.7,51.6,35.2,40.0,27.7,19.4,77,45,17,30.12,29.83,15,4,16,0.01
2013-5-11,58.6,46.1,40.4,40.3,26.5,18.8,66,47,32,30.17,29.83,33,10,33,0.00
2013-5-12,57.9,46.1,34.5,25.7,21.0,14.3,63,40,19,30.22,30.04,22,5,22,0.00
2013-5-13,71.1,55.4,36.5,47.8,34.6,24.4,71,47,29,30.08,29.59,31,4,31,0.02
2013-5-14,95.5,74.1,52.5,52.9,45.6,27.5,80,42,12,29.63,29.39,33,7,33,0.00
2013-5-15,81.0,67.8,55.1,49.5,45.8,41.6,68,47,26,29.86,29.62,27,6,27,0.00
2013-5-16,81.0,70.4,55.5,50.3,42.7,27.0,74,40,21,29.87,29.77,22,6,22,0.00
2013-5-17,68.2,59.3,56.1,54.9,49.4,27.9,92,74,22,29.97,29.83,16,6,18,0.10
2013-5-18,81.0,65.8,54.8,65.7,59.0,53.3,97,81,55,29.97,29.74,18,4,21,0.90
2013-5-19,81.3,69.0,63.4,66.6,63.3,60.6,96,83,57,29.75,29.50,28,4,31,1.20
2013-5-20,71.7,66.3,60.7,62.8,59.9,56.5,96,81,61,29.53,29.46,26,5,27,0.29
2013-5-21,60.6,53.1,45.7,58.7,51.7,44.2,97,95,92,29.71,29.48,15,6,17,0.17
2013-5-22,52.7,48.4,43.7,48.4,45.6,42.4,96,90,74,29.98,29.70,25,7,25,0.04
2013-5-23,63.4,52.8,43.3,43.6,34.8,25.1,88,55,26,30.32,29.98,22,6,22,0.00
2013-5-24,67.9,55.8,38.6,52.4,38.0,29.3,88,54,32,30.36,30.16,15,3,16,0.17
2013-5-25,62.7,57.5,53.0,51.7,48.2,44.1,93,72,54,30.23,30.17,26,5,26,0.06
2013-5-26,59.3,56.7,52.9,47.6,42.6,36.0,70,60,44,30.20,30.00,23,6,23,0.00
2013-5-27,60.7,57.6,53.9,54.0,50.6,47.0,94,78,66,30.01,29.80,18,6,18,0.02
2013-5-28,59.6,56.6,53.6,56.2,53.6,50.8,92,90,87,29.80,29.69,13,2,14,0.03
2013-5-29,75.0,66.2,55.9,69.2,60.9,53.9,94,83,67,29.80,29.59,17,3,17,0.37
2013-5-30,77.7,69.1,64.0,65.4,62.9,59.9,95,82,57,29.63,29.47,26,6,27,0.20
2013-5-31,76.3,68.7,61.8,61.9,56.2,49.8,94,67,40,29.50,29.44,33,8,33,0.30
2013-6-1,72.0,60.6,51.2,60.6,52.6,43.8,91,76,53,29.90,29.49,24,4,24,0.12
2013-6-2,66.7,57.0,48.7,44.1,41.2,37.7,80,57,37,30.07,29.90,18,3,18,0.00
2013-6-3,68.5,61.1,47.9,47.0,43.5,39.0,87,55,34,30.02,29.91,13,1,14,0.00
2013-6-4,63.4,59.6,53.4,53.5,49.2,41.8,93,69,51,30.06,29.93,21,4,21,0.03
2013-6-5,59.2,55.8,52.2,56.2,53.8,50.5,96,93,89,30.02,29.92,13,2,13,0.18
2013-6-6,56.5,52.3,48.9,52.4,50.1,47.7,97,92,85,30.02,29.95,13,2,13,0.00
2013-6-7,64.3,57.8,51.8,53.1,51.3,49.7,93,80,61,30.03,29.89,8,0,9,0.00
2013-6-8,72.0,63.8,53.1,56.7,53.3,50.7,93,70,50,29.89,29.83,16,2,16,0.00
2013-6-9,65.4,60.0,56.6,60.9,56.6,53.5,95,89,70,29.84,29.73,19,3,19,0.47
2013-6-10,74.8,65.4,59.4,62.2,60.2,58.2,97,84,62,29.82,29.77,13,1,13,0.00
2013-6-11,75.0,67.3,56.1,67.7,62.7,54.7,96,85,71,29.85,29.77,10,0,11,0.01
2013-6-12,75.8,66.1,58.7,64.8,59.0,52.0,95,79,58,29.90,29.73,26,2,26,1.35
2013-6-13,77.5,68.5,56.9,56.6,53.5,50.2,79,60,45,30.05,29.90,15,2,15,0.00
2013-6-14,78.8,70.2,58.9,62.3,56.8,51.0,77,63,52,30.04,29.81,23,3,23,0.03
2013-6-15,76.5,70.0,63.4,68.3,64.4,60.8,94,83,66,29.88,29.78,25,1,25,0.62
2013-6-16,86.2,72.0,60.4,61.7,52.8,43.7,93,55,24,29.87,29.77,37,4,37,0.01
2013-6-17,81.0,70.7,60.6,60.4,56.2,51.7,79,61,39,29.99,29.79,16,3,18,0.00
2013-6-18,75.4,64.8,51.0,58.3,53.0,44.5,81,67,50,30.06,29.98,13,1,13,0.00
2013-6-19,85.3,73.1,59.1,61.7,57.9,54.0,84,61,36,30.02,29.88,14,1,14,0.00
2013-6-20,89.8,80.0,70.7,67.5,63.2,59.3,75,58,41,29.94,29.80,23,3,23,0.00
2013-6-21,82.0,72.4,62.8,68.5,64.6,58.7,96,78,54,30.03,29.65,46,3,46,2.98
2013-6-22,80.1,71.7,65.5,68.8,66.2,62.9,96,83,67,29.93,29.78,20,2,20,0.37
2013-6-23,82.6,74.7,69.0,69.2,66.8,62.4,94,78,51,29.83,29.62,25,5,25,0.91
2013-6-24,83.5,74.3,64.3,70.8,65.9,62.5,94,76,53,29.85,29.74,17,1,19,0.02
2013-6-25,85.9,76.2,65.2,72.7,67.1,62.3,91,75,56,29.77,29.65,18,2,18,0.00
2013-6-26,87.5,79.4,73.1,75.0,70.2,64.0,94,75,50,29.75,29.59,30,3,30,0.38
2013-6-27,85.8,78.6,70.4,66.2,60.7,53.7,83,57,34,29.76,29.71,28,7,28,0.00
2013-6-28,78.0,70.8,64.6,64.8,60.4,56.5,92,70,54,29.76,29.70,26,7,28,0.13
2013-6-29,76.8,68.4,61.7,62.9,57.6,49.8,96,71,43,29.95,29.70,20,3,20,0.39
2013-6-30,81.8,70.2,56.6,56.8,52.8,48.7,86,58,34,30.06,29.95,17,2,17,0.00
2013-7-1,84.4,73.3,61.5,60.4,56.0,50.6,86,58,33,30.14,30.05,15,2,16,0.00
2013-7-2,82.3,72.1,58.5,58.0,53.5,42.7,83,55,32,30.12,30.00,11,1,13,0.00
2013-7-3,84.5,73.2,59.5,59.2,53.3,46.2,90,54,28,30.02,29.89,11,1,11,0.00
2013-7-4,88.5,77.3,64.7,61.5,56.8,52.2,76,52,30,29.90,29.79,21,3,21,0.00
2013-7-5,88.1,80.0,70.8,64.4,60.7,56.1,66,52,39,29.83,29.73,26,6,26,0.00
2013-7-6,89.0,81.3,73.6,67.1,63.8,61.0,68,56,46,29.81,29.72,18,3,18,0.00
2013-7-7,91.3,80.7,69.9,71.0,67.7,63.4,92,66,49,29.83,29.74,23,3,23,0.13
2013-7-8,85.9,72.8,61.2,69.9,66.0,60.2,97,81,51,29.97,29.83,10,1,11,0.01
2013-7-9,85.3,77.3,68.3,71.8,68.7,64.0,95,76,57,29.91,29.68,26,6,27,0.59
2013-7-10,80.1,71.8,61.6,64.4,56.7,51.9,83,61,40,30.00,29.87,21,4,22,0.00
2013-7-11,85.2,75.0,60.7,61.8,57.0,52.6,90,57,35,30.07,29.91,23,2,23,0.00
2013-7-12,88.8,79.4,70.0,62.9,59.7,55.8,65,52,39,29.95,29.82,23,5,24,0.00
2013-7-13,80.5,73.9,66.3,70.8,65.0,56.5,95,75,54,30.03,29.85,22,4,23,2.00
2013-7-14,85.7,76.8,70.5,67.2,64.4,61.1,80,66,48,30.12,30.00,16,2,16,0.01
2013-7-15,87.5,79.7,69.6,69.3,66.0,62.7,86,64,46,30.18,30.09,15,2,15,0.00
2013-7-16,91.1,83.7,75.8,72.3,70.9,68.2,85,67,49,30.14,30.09,20,4,20,0.00
2013-7-17,92.3,84.6,76.0,72.3,69.8,67.8,81,62,47,30.18,30.03,20,4,20,0.00
2013-7-18,92.3,85.4,78.3,73.0,71.3,69.2,78,64,48,30.03,29.68,28,8,33,0.00
2013-7-19,84.4,82.5,82.4,70.9,70.8,70.4,68,68,63,29.87,29.64,27,8,27,0.00
2013-7-20,82.4,78.9,74.2,70.8,63.8,53.0,68,60,46,29.93,29.84,13,5,13,0.00
2013-7-21,82.0,75.9,66.5,66.9,61.0,56.5,86,61,53,29.93,29.73,13,2,13,0.00
2013-7-22,85.9,78.2,67.6,70.5,64.1,55.8,82,62,46,29.81,29.60,23,4,23,0.00
2013-7-23,75.3,67.9,59.1,56.6,53.5,50.0,85,61,44,29.98,29.81,19,2,19,0.00
2013-7-24,78.1,68.5,60.8,60.0,55.0,51.5,76,63,46,30.04,29.92,13,1,14,0.00
2013-7-25,79.0,72.9,64.7,64.0,60.8,57.2,81,67,50,29.93,29.84,21,2,23,0.00
2013-7-26,72.1,63.8,56.2,62.8,54.5,46.6,87,72,60,30.06,29.84,27,6,27,0.04
2013-7-27,61.4,56.1,51.5,52.5,48.2,45.1,85,75,60,30.06,29.90,27,5,27,0.06
2013-7-28,72.6,60.7,52.4,54.4,50.1,46.2,83,69,47,30.03,29.94,16,2,16,0.00
2013-7-29,76.8,67.1,53.5,61.5,54.0,50.7,92,65,44,30.09,30.02,14,1,15,0.03
2013-7-30,70.3,66.0,61.9,64.2,62.1,59.7,95,87,79,30.06,30.01,8,0,8,0.17
2013-7-31,79.5,69.8,62.3,64.2,58.9,49.1,95,72,37,30.03,29.93,24,4,25,0.00
2013-8-1,79.3,70.2,58.1,60.6,54.6,51.4,79,59,41,29.99,29.80,15,2,15,0.00
2013-8-2,76.0,69.0,60.1,60.2,53.9,47.2,81,60,40,30.01,29.80,16,2,16,0.00
2013-8-3,76.5,66.7,54.4,56.3,51.6,47.5,88,61,38,30.16,30.00,14,1,14,0.00
2013-8-4,75.3,65.4,53.4,56.0,52.5,49.0,88,65,42,30.19,29.96,16,1,16,0.00
2013-8-5,80.2,69.5,60.9,66.8,62.2,55.7,94,78,58,29.98,29.73,19,3,19,0.63
2013-8-6,83.2,68.7,58.8,67.8,60.7,55.9,92,77,56,29.80,29.64,39,3,39,0.13
2013-8-7,75.8,66.6,60.4,60.1,54.6,47.2,95,69,39,29.98,29.75,17,2,17,0.01
2013-8-8,74.0,66.3,57.4,61.3,57.0,54.0,89,73,54,30.01,29.93,16,2,16,0.01
2013-8-9,74.5,67.2,59.8,60.6,54.7,48.3,92,66,42,30.09,29.95,20,3,20,0.00
2013-8-10,74.8,67.0,57.5,56.0,53.4,48.3,85,63,45,30.15,30.04,12,1,12,0.00
2013-8-11,81.1,70.2,62.9,63.8,60.7,55.6,90,73,51,30.04,29.94,11,0,11,0.03
2013-8-12,79.1,70.3,60.7,64.4,56.8,50.8,89,65,38,30.03,29.95,18,3,18,0.00
2013-8-13,75.0,65.6,54.6,57.1,50.0,40.5,94,61,31,30.16,30.03,22,1,22,0.00
2013-8-14,76.5,66.2,53.8,55.4,51.8,48.1,91,62,39,30.16,30.05,19,2,19,0.00
2013-8-15,78.5,67.8,55.4,60.3,55.7,51.6,88,67,43,30.09,30.02,15,2,16,0.00
2013-8-16,78.5,69.9,61.1,59.1,56.7,53.5,86,64,44,30.14,30.08,17,2,17,0.00
2013-8-17,80.3,74.6,67.6,56.5,55.6,53.8,67,52,41,30.08,30.05,13,3,18,0.00
2013-8-18,81.2,72.4,62.0,59.5,57.2,54.7,81,60,44,30.09,29.94,17,4,27,0.00
2013-8-19,81.8,71.0,68.0,67.2,60.9,58.3,76,71,61,29.97,29.88,16,4,17,0.00
2013-8-20,88.4,80.1,72.2,73.2,69.5,65.8,81,71,58,29.86,29.79,13,3,19,0.00
2013-8-21,86.6,77.6,73.6,75.2,70.6,61.1,87,80,48,29.95,29.76,12,2,14,0.00
2013-8-22,84.7,74.9,66.4,61.0,52.5,45.7,71,48,28,30.09,29.94,16,2,16,0.00
2013-8-23,86.0,73.9,58.6,67.2,58.3,50.6,77,60,40,30.11,29.97,19,2,19,0.00
2013-8-24,90.0,79.7,70.8,72.6,68.6,64.5,81,70,51,30.01,29.86,28,6,28,0.00
2013-8-25,94.5,85.6,79.7,75.5,72.8,70.4,78,66,52,29.93,29.85,27,8,27,0.00
2013-8-26,94.3,85.8,78.7,76.4,74.5,72.4,84,70,53,29.91,29.76,26,5,26,0.00
2013-8-27,91.8,83.8,76.9,77.6,74.4,71.3,84,74,62,29.85,29.72,13,1,14,0.00
2013-8-28,89.8,79.4,68.9,73.2,68.5,63.5,95,72,43,29.95,29.85,12,1,12,0.00
2013-8-29,91.7,81.5,73.2,76.5,71.8,65.1,95,74,43,29.94,29.76,19,2,20,0.46
2013-8-30,82.5,76.3,70.1,72.0,66.6,62.8,90,72,55,29.89,29.74,15,3,15,0.00
2013-8-31,86.9,74.0,63.3,69.3,64.7,61.0,93,74,50,29.86,29.65,27,2,27,0.18
2013-9-1,71.9,67.9,60.5,64.1,59.4,53.0,86,75,64,29.95,29.66,18,5,18,0.01
2013-9-2,67.0,59.5,54.1,53.9,52.1,50.4,88,77,60,30.07,29.95,13,1,13,0.00
2013-9-3,76.7,63.3,50.1,60.5,54.9,48.2,94,76,51,30.07,29.95,14,1,14,0.00
2013-9-4,83.8,70.7,58.7,65.2,60.9,56.5,95,73,51,30.11,29.97,12,1,12,0.00
2013-9-5,83.3,71.8,60.7,66.4,59.4,52.1,81,66,46,30.18,30.04,11,2,12,0.00
2013-9-6,90.0,79.2,70.7,68.5,66.6,63.1,90,68,45,30.04,29.78,22,4,22,0.00
2013-9-7,90.4,79.6,70.1,70.4,67.0,59.9,89,67,44,29.98,29.78,20,4,20,0.00
2013-9-8,74.3,68.0,63.7,65.1,58.9,52.6,82,73,62,30.01,29.83,15,3,15,0.00
2013-9-9,91.5,77.2,69.0,73.6,69.2,64.6,92,78,52,29.84,29.56,21,3,22,0.02
2013-9-10,81.6,73.3,67.8,72.3,64.6,58.9,90,75,47,29.94,29.70,20,3,20,0.01
2013-9-11,83.2,73.3,64.6,61.6,57.0,48.8,88,60,32,30.01,29.93,19,4,19,0.00
2013-9-12,71.5,63.5,54.6,55.7,49.4,44.5,87,62,40,30.20,30.01,21,3,22,0.00
2013-9-13,69.5,58.7,46.5,49.0,45.1,42.5,91,63,39,30.25,30.04,10,1,10,0.00
2013-9-14,70.8,59.4,50.7,57.9,49.7,44.8,94,72,46,30.05,29.86,18,3,18,0.43
2013-9-15,63.8,57.9,49.8,56.5,53.5,45.7,96,86,66,30.30,29.85,16,3,17,0.21
2013-9-16,66.8,54.0,41.3,45.4,40.8,29.5,95,66,25,30.39,30.22,13,1,13,0.00
2013-9-17,67.0,57.8,49.1,57.2,50.0,42.3,94,76,63,30.22,29.90,22,4,22,0.00
2013-9-18,73.3,67.0,59.0,68.4,64.4,57.2,97,92,82,29.90,29.64,14,2,15,0.03
2013-9-19,76.0,70.5,64.1,70.0,66.2,56.4,95,87,70,29.75,29.58,29,3,39,0.28
2013-9-20,64.1,58.2,50.7,56.3,51.9,47.5,90,80,56,29.91,29.75,27,6,27,0.02
2013-9-21,62.4,53.4,47.6,48.4,46.5,44.4,96,78,57,29.98,29.88,13,2,15,0.00
2013-9-22,72.4,59.0,46.1,56.2,50.1,43.0,93,74,55,29.97,29.81,20,4,20,0.00
2013-9-23,73.3,63.8,55.6,54.1,51.8,49.0,79,66,47,29.91,29.83,21,4,21,0.00
2013-9-24,75.3,64.0,53.9,54.7,52.0,49.2,85,66,44,29.94,29.87,17,1,17,0.00
2013-9-25,74.6,62.5,49.9,55.4,52.0,48.0,94,71,46,29.94,29.83,18,2,18,0.00
2013-9-26,81.3,68.9,58.0,61.8,56.5,51.3,79,66,48,29.89,29.77,24,5,24,0.00
2013-9-27,84.4,73.8,66.5,64.7,61.5,59.5,79,66,47,29.86,29.73,26,5,26,0.00
2013-9-28,74.2,61.8,49.4,63.3,54.4,45.5,93,77,63,29.91,29.58,29,5,29,0.21
2013-9-29,76.2,61.0,46.2,49.5,45.5,43.0,89,60,32,29.93,29.73,22,3,22,0.00
2013-9-30,79.8,68.5,59.9,54.1,50.2,46.1,64,53,38,29.74,29.53,24,6,26,0.00
2013-10-1,74.0,67.4,56.7,53.7,44.1,32.3,69,45,22,29.95,29.51,25,7,25,0.00
2013-10-2,75.3,59.8,45.3,54.9,43.9,34.6,94,61,25,30.01,29.80,21,3,21,0.90
2013-10-3,57.7,56.2,53.8,56.6,54.7,52.5,97,95,91,29.92,29.81,17,2,17,0.19
2013-10-4,55.1,54.3,53.7,53.4,52.9,52.6,96,95,92,29.96,29.91,16,5,16,0.01
2013-10-5,58.8,52.7,43.6,53.8,47.7,41.5,93,83,71,29.79,29.70,11,1,17,0.00
2013-10-6,52.1,47.3,42.4,49.8,45.7,40.8,96,94,89,29.82,29.67,12,1,18,0.06
2013-10-7,66.1,49.4,44.9,47.4,43.4,38.6,94,83,37,29.95,29.81,16,1,16,0.01
2013-10-8,76.5,63.3,49.9,48.9,45.7,42.1,79,55,34,29.93,29.76,26,5,26,0.00
2013-10-9,76.0,66.3,59.9,53.0,50.1,47.7,68,57,43,29.99,29.86,24,6,25,0.00
2013-10-10,77.5,64.5,53.4,55.3,49.6,45.7,76,60,41,29.99,29.82,20,3,20,0.00
2013-10-11,73.5,66.6,58.2,61.6,54.6,51.3,91,66,52,29.83,29.57,32,8,32,0.06
2013-10-12,62.0,51.2,46.7,54.5,43.8,40.0,84,76,62,30.15,29.64,30,6,30,0.02
2013-10-13,59.7,48.4,38.8,41.6,37.7,33.8,89,69,40,30.41,30.14,14,1,14,0.00
2013-10-14,54.4,47.9,39.1,46.7,39.8,36.7,94,75,53,30.38,29.95,19,3,19,0.30
2013-10-15,53.5,49.7,45.4,52.1,48.1,44.0,95,94,90,29.95,29.65,26,5,26,0.78
2013-10-16,53.9,46.2,39.3,44.0,39.9,35.1,95,80,50,29.94,29.81,17,3,17,0.01
2013-10-17,55.8,46.3,39.1,46.0,40.5,36.2,94,81,57,29.85,29.75,17,2,17,0.00
2013-10-18,51.9,44.3,37.9,40.7,34.9,29.0,93,72,43,29.97,29.81,20,4,20,0.01
2013-10-19,44.1,40.0,35.0,39.7,35.9,31.5,95,85,78,29.81,29.67,16,3,16,0.00
2013-10-20,42.7,36.4,31.6,38.5,33.9,29.8,94,91,83,29.87,29.61,22,2,22,0.78
2013-10-21,38.9,34.8,31.1,32.5,24.7,21.5,82,67,55,29.95,29.86,25,6,25,0.14
2013-10-22,40.4,34.0,27.7,33.2,28.9,24.6,90,82,67,30.03,29.95,14,1,14,0.08
2013-10-23,36.9,34.6,32.9,32.1,26.4,20.8,92,73,57,30.10,29.99,19,3,19,0.02
2013-10-24,41.6,37.4,32.8,32.3,27.7,22.0,82,68,56,30.29,30.10,19,4,19,0.00
2013-10-25,57.9,44.5,31.0,43.3,34.9,27.7,90,70,54,30.30,29.75,25,6,26,0.00
2013-10-26,50.5,42.3,36.4,42.7,30.7,28.1,76,63,53,30.10,29.75,26,7,26,0.00
2013-10-27,56.4,42.7,32.5,35.5,30.9,27.3,84,65,44,30.12,29.79,19,3,19,0.00
2013-10-28,41.6,36.0,30.1,30.5,24.5,19.4,81,64,42,30.44,30.13,20,4,20,0.00
2013-10-29,39.1,35.8,29.2,35.4,29.1,23.8,93,76,68,30.41,30.08,14,3,14,0.11
2013-10-30,49.0,44.0,37.3,48.2,42.9,35.4,97,96,93,30.08,29.64,11,1,12,0.09
2013-10-31,49.2,42.8,39.8,48.4,41.1,37.6,97,94,88,29.64,29.38,16,5,16,0.05
2013-11-1,50.2,42.6,38.7,39.0,36.6,33.1,92,80,60,29.84,29.39,20,5,20,0.00
2013-11-2,48.8,39.7,32.6,37.7,32.0,29.2,89,75,51,30.09,29.84,16,2,17,0.00
2013-11-3,54.8,44.7,35.4,36.5,33.2,30.2,89,65,44,30.09,29.84,36,5,36,0.00
2013-11-4,48.4,44.8,35.5,44.3,37.6,32.3,91,76,59,30.12,29.80,21,4,23,0.12
2013-11-5,44.6,35.3,28.6,33.2,29.9,25.3,95,82,48,30.23,30.02,14,1,14,0.02
2013-11-6,38.2,32.9,29.7,31.5,27.7,24.4,95,82,64,30.16,30.02,20,4,20,0.28
2013-11-7,36.4,30.1,24.8,30.5,26.7,23.0,93,87,78,30.24,30.15,17,2,17,0.01
2013-11-8,45.6,35.7,24.3,38.7,28.7,22.5,93,77,56,30.19,29.56,22,4,23,0.00
2013-11-9,43.1,40.5,36.5,39.0,33.0,27.3,88,75,62,30.19,29.59,33,12,33,0.01
2013-11-10,41.3,37.6,32.2,31.8,29.3,26.0,81,72,62,30.33,30.08,21,4,22,0.00
2013-11-11,37.0,23.8,15.1,31.7,13.5,8.0,81,65,50,30.74,30.10,21,6,24,0.00
2013-11-12,28.7,20.3,12.3,15.6,10.3,7.0,80,66,44,30.80,30.44,15,4,15,0.00
2013-11-13,51.8,37.8,23.1,35.5,25.5,14.4,71,61,50,30.44,29.84,25,7,25,0.00
2013-11-14,53.0,42.3,36.4,39.9,34.6,31.5,86,74,60,29.84,29.72,13,2,13,0.00
2013-11-15,55.8,43.6,30.9,41.0,35.5,28.8,93,75,50,29.83,29.59,17,2,19,0.00
2013-11-16,49.5,45.0,41.5,48.4,41.9,35.7,96,89,72,29.59,29.21,14,3,14,0.08
2013-11-17,44.6,39.7,32.1,42.7,35.4,25.0,96,85,74,29.80,29.27,33,10,33,0.01
2013-11-18,34.4,29.4,23.3,25.9,21.4,18.9,84,72,60,30.26,29.80,34,8,34,0.00
2013-11-19,46.4,35.6,22.7,31.5,25.8,18.9,86,69,49,30.26,29.88,26,4,26,0.00
2013-11-20,45.8,42.2,37.7,34.6,30.7,26.4,88,65,50,30.02,29.85,21,3,23,0.00
2013-11-21,38.1,30.9,23.9,36.6,26.5,15.2,95,84,69,30.52,30.02,22,6,24,0.00
2013-11-22,34.2,22.5,12.2,16.0,10.6,3.8,80,62,33,30.66,30.44,24,7,24,0.00
2013-11-23,17.6,11.6,6.7,4.8,2.0,-2.4,81,66,42,30.87,30.65,19,5,20,0.00
2013-11-24,31.2,20.5,7.9,17.6,9.9,3.0,81,64,49,30.74,29.95,29,8,29,0.00
2013-11-25,38.1,33.4,28.8,28.9,24.3,17.4,82,69,58,30.08,29.88,34,10,34,0.00
2013-11-26,29.1,20.1,13.0,20.6,8.2,3.2,74,60,50,30.40,30.07,28,8,29,0.00
2013-11-27,24.7,17.5,8.4,11.3,8.1,4.8,92,67,53,30.41,30.08,14,1,14,0.00
2013-11-28,26.2,21.7,12.3,15.1,12.2,7.9,83,66,56,30.53,30.07,18,2,18,0.00
2013-11-29,32.2,23.1,9.4,21.9,15.3,6.1,89,73,57,30.53,30.13,18,2,18,0.00
2013-11-30,39.2,31.6,24.8,28.0,24.5,21.1,89,75,63,30.17,30.02,12,1,12,0.00
2013-12-1,34.4,27.0,18.6,25.7,22.1,16.2,91,82,69,30.20,29.92,8,0,8,0.00
2013-12-2,37.5,33.0,26.0,33.5,29.7,22.7,95,88,78,29.92,29.57,16,4,16,0.15
2013-12-3,35.5,34.3,31.5,34.2,32.9,30.0,96,95,91,29.78,29.57,15,3,15,0.03
2013-12-4,31.6,26.8,13.4,30.1,25.5,10.4,96,95,88,29.77,29.47,28,6,28,0.01
2013-12-5,13.3,5.8,-1.0,10.3,1.3,-5.2,93,81,76,30.39,29.69,22,8,23,0.00
2013-12-6,3.3,-2.2,-6.6,-3.0,-7.2,-11.6,84,79,72,30.70,30.38,15,4,15,0.00
2013-12-7,0.8,-4.9,-11.1,-6.1,-10.4,-15.1,82,77,66,30.79,30.62,17,2,17,0.00
2013-12-8,12.1,6.2,-3.6,8.4,2.7,-7.6,89,85,81,30.62,30.05,7,0,7,0.00
2013-12-9,10.9,1.0,-3.6,8.3,-3.7,-8.5,89,80,71,30.15,29.90,24,5,24,0.00
2013-12-10,9.8,5.5,1.0,4.9,0.5,-3.5,92,79,71,30.34,29.80,25,5,25,0.00
2013-12-11,3.1,-2.8,-7.9,-2.9,-9.3,-13.3,78,73,66,30.61,30.34,15,5,15,0.00
2013-12-12,18.8,11.4,2.2,11.7,5.6,-4.2,86,77,67,30.35,30.16,9,1,13,0.00
2013-12-13,16.3,12.8,9.8,12.1,7.5,5.9,92,79,74,30.33,30.15,18,5,18,0.00
2013-12-14,13.2,9.0,-0.1,8.6,4.9,-5.4,87,83,78,30.32,30.12,21,4,21,0.00
2013-12-15,2.9,0.1,-1.7,-5.5,-7.5,-9.7,79,70,59,30.21,30.14,15,2,16,0.00
2013-12-16,26.2,10.2,0.4,22.1,5.3,-8.8,90,80,64,30.18,29.89,15,2,15,0.00
2013-12-17,32.4,23.2,9.0,28.0,17.2,4.7,86,77,65,30.12,29.85,27,8,29,0.00
2013-12-18,35.2,24.3,8.1,26.5,18.5,4.7,89,79,67,30.09,29.64,16,2,16,0.05
2013-12-19,26.3,17.4,15.0,21.4,12.2,8.3,89,80,72,30.10,29.79,18,3,18,0.00
2013-12-20,18.2,15.2,11.5,16.1,11.8,8.8,92,86,81,30.06,29.86,11,0,11,0.00
2013-12-21,21.2,18.0,14.5,16.1,13.7,11.1,92,83,77,30.02,29.87,14,1,14,0.00
2013-12-22,18.1,14.4,6.4,14.3,10.7,2.8,88,85,81,30.26,29.97,16,4,17,0.00
2013-12-23,6.4,-0.4,-6.8,3.9,-5.5,-12.4,95,79,72,30.56,30.26,17,6,18,0.00
2013-12-24,11.1,0.4,-11.5,7.4,-5.4,-16.2,92,77,59,30.55,30.16,15,2,15,0.00
2013-12-25,24.0,16.1,9.6,20.8,12.1,6.0,98,84,73,30.16,30.05,21,2,21,0.00
2013-12-26,26.3,19.7,14.4,22.1,16.2,10.0,92,86,81,30.18,30.08,3,0,3,0.00
2013-12-27,40.2,28.9,12.7,31.8,24.9,10.2,93,85,70,30.17,29.88,22,3,25,0.31
2013-12-28,46.0,31.4,17.4,32.7,27.3,12.7,95,86,58,30.03,29.62,26,3,29,0.07
2013-12-29,17.0,-0.7,-11.2,12.7,-8.9,-17.4,83,68,53,30.37,30.01,25,7,27,0.00
2013-12-30,1.9,-4.1,-11.5,-2.6,-8.8,-17.4,85,80,74,30.37,30.24,5,0,7,0.00
2013-12-31,-2.8,-6.6,-10.2,-6.3,-11.4,-15.2,85,79,71,30.49,30.24,7,1,9,0.00
2014-1-1,0.2,-3.9,-9.1,-7.2,-10.7,-15.1,75,72,69,30.56,30.47,10,1,10,0.00
2014-1-2,2.4,-4.3,-11.4,-8.0,-12.9,-16.6,77,66,48,30.57,30.42,10,0,10,0.00